Location: Moena
(46.3667°N, 11.6500°E)
Time: 08:35:53
(UTC+00:00)

GP-B - Pass Details

Date: 19 June 2021
Orbit: 631 x 635 km, 89.8° (Epoch: 28 July)

Event Time Altitude Azimuth Distance (km) Brightness Sun altitude
Rises 00:12:39 0° 350° (N) 2,944 7.7 -19.0°
Reaches altitude 10° 00:15:10 10° 337° (NNW) 2,030 6.4 -18.9°
Maximum altitude 00:18:48 25° 283° (WNW) 1,283 4.6 -18.7°
Enters shadow 00:20:16 21° 253° (WSW) 1,427 4.6 -18.6°
